Sault Ste Marie, MI

2:53 PM EST on February 24, 2017 (GMT -0500)
Sault Ste Marie Municipal / Sanderson Field

Weather History for KANJ - February, 2013

Change the Weather History Date:

Friday, February 1, 2013

  Actual Average Record
Temperature  
Mean Temperature 5 °F 15 °F  
Max Temperature 11 °F 23 °F 39 °F (1952)
Min Temperature -2 °F 7 °F -31 °F (1918)
Degree Days  
Heating Degree Days 60 50  
Month to date heating degree days 60 50  
Since 1 July heating degree days 4443 4850  
Moisture  
Dew Point -4 °F    
Average Humidity 72    
Maximum Humidity 80    
Minimum Humidity 63    
Precipitation  
Precipitation T in 0.05 in 0.66 in (1963)
Month to date precipitation T 0.05  
Year to date precipitation 3.29 2.24  
Snow  
Snow 0.30 in 0.80 in 7.80 in (1990)
Month to date snowfall 0.3 0.8  
Since 1 July snowfall 89.7 82.4  
Snow Depth 18.00 in    
Sea Level Pressure  
Sea Level Pressure 30.00 in    
Wind  
Wind Speed 5 mph (East)    
Max Wind Speed 14 mph    
Max Gust Speed 16 mph    
Visibility 7 miles    
Events Snow    
T = Trace of Precipitation, MM = Missing Value Source: NWS Daily Summary

Daily Weather History Graph

Daily Weather History Graph

Search for Another Location

Airport or City:

Trip Planner

Search our weather history database for the weather conditions in past years. The results will help you decide how hot, cold, wet, or windy it might be!

Date:

Astronomy

Feb. 01, 2013 Rise Set
Actual Time 8:00 AM EST 5:42 PM EST
Civil Twilight 7:28 AM EST 6:14 PM EST
Nautical Twilight 6:52 AM EST 6:50 PM EST
Astronomical Twilight 6:17 AM EST 7:25 PM EST
Moon No Moon Rise 10:09 AM EST (2/1)
Length of Visible Light 10h 45m
Length of Day
9h 41m
Waning Gibbous, 70% of the Moon is Illuminated
Feb 1
Waning Gibbous
Feb 3
Last Quarter
Feb 10
New
Feb 17
First Quarter
Feb 25
Full

Hourly Weather History & Observations

Time (EST) Temp. Windchill Dew Point Humidity Pressure Visibility Wind Dir Wind Speed Gust Speed Precip Events Conditions
12:11 AM 3.0 °F -9.3 °F -5.1 °F 69% 29.80 in 10.0 mi NNE 6.9 mph - 0.00 in   Overcast
12:19 AM 3.0 °F -11.5 °F -6.0 °F 66% 29.80 in 10.0 mi NNE 9.2 mph - 0.00 in   Overcast
12:55 AM 1.9 °F -12.9 °F -6.0 °F 69% 29.86 in 9.0 mi NNE 9.2 mph - 0.00 in   Scattered Clouds
1:04 AM 1.9 °F -9.2 °F -6.0 °F 69% 29.82 in 7.0 mi NNE 5.8 mph - 0.00 in   Mostly Cloudy
1:13 AM 1.9 °F -9.2 °F -6.0 °F 69% 29.82 in 8.0 mi NNE 5.8 mph - 0.00 in   Scattered Clouds
1:55 AM 1.9 °F -9.2 °F -6.0 °F 69% 29.89 in 10.0 mi NE 5.8 mph - 0.00 in   Mostly Cloudy
2:55 AM 1.0 °F -10.3 °F -8.0 °F 66% 29.91 in 10.0 mi NNE 5.8 mph - 0.00 in   Overcast
3:55 AM 1.0 °F -10.3 °F -8.0 °F 66% 29.93 in 10.0 mi NNE 5.8 mph - 0.00 in   Overcast
4:55 AM -0.0 °F -7.9 °F -9.0 °F 66% 29.96 in 5.0 mi NNE 3.5 mph - 0.00 in Snow Light Snow
5:55 AM -0.9 °F -11.0 °F -9.9 °F 66% 29.98 in 10.0 mi NNE 4.6 mph - 0.00 in   Overcast
6:55 AM -2.0 °F -10.1 °F -9.9 °F 69% 30.01 in 3.0 mi ENE 3.5 mph - 0.00 in Snow Light Snow
6:59 AM -2.0 °F -10.1 °F -9.0 °F 72% 29.96 in 2.5 mi ENE 3.5 mph - 0.00 in Snow Light Snow
7:32 AM -2.0 °F -12.2 °F -9.0 °F 72% 29.97 in 3.0 mi ENE 4.6 mph - 0.00 in Snow Light Snow
7:43 AM -2.0 °F -12.2 °F -9.0 °F 72% 29.98 in 3.0 mi ENE 4.6 mph - 0.00 in Snow Light Snow
7:55 AM -2.0 °F -12.2 °F -9.0 °F 72% 30.04 in 4.0 mi ENE 4.6 mph - 0.00 in Snow Light Snow
8:11 AM -2.0 °F -10.1 °F -9.0 °F 72% 29.99 in 7.0 mi ESE 3.5 mph - 0.00 in   Overcast
8:55 AM -2.0 °F -12.2 °F -8.0 °F 76% 30.07 in 4.0 mi SE 4.6 mph - 0.00 in Snow Light Snow
9:55 AM -0.9 °F -8.9 °F -8.0 °F 72% 30.08 in 7.0 mi SSE 3.5 mph - 0.00 in   Overcast
10:04 AM -0.9 °F -8.9 °F -7.1 °F 75% 30.03 in 2.5 mi SSE 3.5 mph - 0.00 in Snow Light Snow
10:16 AM -0.9 °F -12.7 °F -7.1 °F 75% 30.03 in 1.8 mi SSE 5.8 mph - 0.00 in Snow Light Snow
10:24 AM -0.9 °F -8.9 °F -7.1 °F 75% 30.04 in 2.5 mi SE 3.5 mph - 0.00 in   Overcast
10:32 AM -0.9 °F -11.0 °F -8.0 °F 72% 30.04 in 5.0 mi SE 4.6 mph - 0.00 in   Overcast
10:46 AM -0.0 °F - -8.0 °F 69% 30.04 in 10.0 mi Calm Calm - 0.00 in   Overcast
10:55 AM 1.0 °F - -6.0 °F 72% 30.09 in 10.0 mi Calm Calm - 0.00 in   Overcast
11:07 AM 1.9 °F - -7.1 °F 66% 30.03 in 10.0 mi Calm Calm - 0.00 in   Overcast
11:55 AM 3.9 °F - -6.0 °F 64% 30.09 in 10.0 mi Calm Calm - 0.00 in   Mostly Cloudy
12:55 PM 5.0 °F -4.1 °F -5.1 °F 63% 30.08 in 10.0 mi SSE 4.6 mph - 0.00 in   Overcast
1:55 PM 8.1 °F - -2.0 °F 64% 30.06 in 10.0 mi Calm Calm - 0.00 in   Overcast
2:48 PM 8.1 °F - -0.9 °F 67% 30.00 in 6.0 mi Calm Calm - 0.00 in   Haze
2:55 PM 9.0 °F 2.4 °F -0.9 °F 64% 30.05 in 5.0 mi Variable 3.5 mph - 0.00 in Snow Light Snow
3:51 PM 8.6 °F 0.1 °F -0.4 °F 67% 30.01 in 3.0 mi East 4.6 mph - 0.00 in Snow Light Snow
3:55 PM 8.1 °F - -0.0 °F 70% 30.06 in 3.0 mi Calm Calm - 0.00 in Snow Light Snow
4:13 PM 8.1 °F 1.4 °F -0.0 °F 70% 30.01 in 3.0 mi ESE 3.5 mph - 0.00 in Snow Light Snow
4:34 PM 8.1 °F -0.5 °F 1.0 °F 73% 30.01 in 2.5 mi ESE 4.6 mph - 0.00 in Snow Light Snow
4:45 PM 9.0 °F 2.4 °F 1.9 °F 73% 30.01 in 3.0 mi ESE 3.5 mph - 0.00 in Snow Light Snow
4:55 PM 8.1 °F -0.5 °F 1.9 °F 76% 30.06 in 4.0 mi SE 4.6 mph - 0.00 in Snow Light Snow
5:55 PM 9.0 °F 2.4 °F 1.9 °F 73% 30.06 in 10.0 mi SSE 3.5 mph - 0.00 in   Overcast
6:55 PM 10.0 °F -2.9 °F 3.9 °F 76% 30.06 in 10.0 mi WSW 9.2 mph - N/A   Mostly Cloudy
7:55 PM 10.0 °F -3.7 °F 3.9 °F 76% 30.06 in 10.0 mi WSW 10.4 mph - N/A   Overcast
8:55 PM 10.0 °F -2.9 °F 1.9 °F 70% 30.06 in 10.0 mi SW 9.2 mph - N/A   Overcast
9:55 PM 7.0 °F -4.5 °F 1.0 °F 77% 30.05 in 10.0 mi SW 6.9 mph - N/A   Overcast
10:55 PM 7.0 °F -4.5 °F -0.0 °F 73% 30.05 in 10.0 mi WSW 6.9 mph - N/A   Overcast
11:55 PM 6.1 °F -6.8 °F -0.9 °F 73% 30.04 in 10.0 mi WSW 8.1 mph - N/A   Overcast